1498683600.64,63085,19.44,73490.3,9.41,8.51,8.41,0,*78
1498683601.88,63086,19.44,73492.3,9.43,8.55,8.55,0,*78
1498683603.12,63087,19.44,73498.3,9.43,8.55,8.47,0,*7A
1498683604.35,63088,19.44,73498.3,9.43,8.47,8.33,0,*75
1498683605.55,63089,19.44,73498.3,9.41,8.45,8.23,0,*75
1498683606.76,63090,19.44,73486.8,9.43,8.23,8.13,0,*7C
1498683607.98,63091,19.44,73472.0,9.41,8.29,8.23,0,*76
1498683609.24,63092,19.44,73484.5,9.41,8.55,8.51,0,*7B
1498683610.49,63093,19.44,73504.5,9.41,8.71,8.71,0,*7E
1498683611.72,63094,19.44,73512.3,9.41,8.61,8.55,0,*7E
1498683612.95,63095,19.44,73510.5,9.43,8.59,8.47,0,*75
1498683614.19,63096,19.44,73488.3,9.41,8.51,8.45,0,*7E
1498683615.44,63097,19.44,73486.0,9.41,8.51,8.33,0,*7E
1498683616.67,63098,19.44,73486.0,9.43,8.59,8.47,0,*78
1498683617.87,63099,19.44,73458.8,9.43,8.65,8.59,0,*79
1498683619.1,63100,19.44,73470.8,9.43,8.55,8.33,0,*77
1498683620.34,63101,19.44,73470.0,9.43,8.75,8.55,0,*74
1498683621.52,63102,19.44,73462.0,9.43,8.69,8.45,0,*7B
1498683622.72,63103,19.44,73488.0,9.43,8.69,8.59,0,*77
1498683623.96,63104,19.44,73502.5,9.43,8.55,8.37,0,*77
1498683625.16,63105,19.44,73504.5,9.43,8.75,8.23,0,*71
1498683626.41,63106,19.44,73500.5,9.41,8.71,8.33,0,*75
1498683627.62,63107,19.44,73508.5,9.43,8.75,8.45,0,*73
1498683628.79,63108,19.44,73506.3,9.43,8.69,8.23,0,*71
1498683630.02,63109,19.44,73504.3,9.41,8.55,7.97,0,*7D
1498683631.23,63110,19.44,73486.3,9.43,8.59,8.05,0,*7F
1498683632.44,63111,19.44,73488.0,9.41,8.61,8.45,0,*73
1498683633.67,63112,19.44,73492.0,9.43,8.59,8.47,0,*7B
1498683634.87,63113,19.44,73494.8,9.43,8.65,8.55,0,*76
1498683636.1,63114,19.44,73508.5,9.43,8.75,8.75,0,*72
1498683637.3,63115,19.44,73510.8,9.43,8.79,8.75,0,*7F
1498683638.5,63116,19.44,73512.0,9.43,8.75,8.65,0,*71
1498683639.75,63117,19.44,73512.5,9.41,8.75,8.71,0,*77
1498683640.94,63118,19.44,73508.0,9.43,8.83,8.83,0,*7E
1498683642.14,63119,19.44,73514.3,9.43,8.89,8.83,0,*75
1498683643.37,63120,19.44,73512.5,9.43,8.93,8.89,0,*7E
1498683644.63,63121,19.44,73510.5,9.45,8.93,8.89,0,*79
1498683645.88,63122,19.44,73518.0,9.45,8.93,8.89,0,*7A
1498683647.11,63123,19.44,73520.3,9.47,8.97,8.93,0,*76
1498683648.34,63124,19.44,73520.3,9.45,8.93,8.83,0,*76
1498683649.57,63125,19.44,73518.5,9.45,8.89,8.83,0,*7C
1498683650.8,63126,19.44,73520.3,9.45,8.89,8.79,0,*7A
1498683652.03,63127,19.44,73522.5,9.45,8.93,8.83,0,*75
1498683653.25,63128,19.44,73520.5,9.45,8.89,8.79,0,*74
1498683654.48,63129,19.44,73514.5,9.47,8.71,8.51,0,*7A
1498683655.74,63130,19.44,73504.8,9.45,8.59,8.55,0,*7E
1498683656.99,63131,19.44,73524.0,9.45,8.55,8.33,0,*73
1498683658.23,63132,19.44,73520.8,9.45,8.37,8.27,0,*71
1498683659.46,63133,19.44,73516.0,9.45,8.45,8.37,0,*74
1498683660.69,63134,19.44,73510.3,9.45,8.55,8.45,0,*77
1498683661.89,63135,19.44,73500.0,9.47,8.61,8.51,0,*76
1498683663.11,63136,19.44,73486.8,9.47,8.59,8.47,0,*79
1498683664.34,63137,19.44,73466.5,9.45,8.01,7.87,0,*74
1498683665.55,63138,19.44,73486.5,9.45,8.23,8.05,0,*7E
1498683666.78,63139,19.44,73506.3,9.45,8.47,8.45,0,*79
1498683668.01,63140,19.44,73506.3,9.45,8.59,8.45,0,*78
1498683669.27,63141,19.44,73506.3,9.45,8.47,8.33,0,*77
1498683670.45,63142,19.44,73494.8,9.43,8.23,8.15,0,*74
1498683671.68,63143,19.44,73486.5,9.45,8.13,7.97,0,*75
1498683672.94,63144,19.44,73496.3,9.41,7.83,7.73,0,*7A
1498683674.16,63145,19.44,73496.0,9.41,7.97,7.83,0,*71
1498683675.39,63146,19.44,73498.3,9.41,8.33,8.23,0,*76
1498683676.64,63147,19.44,73460.8,9.41,8.29,8.29,0,*76
1498683677.89,63148,19.44,73488.5,9.41,8.41,8.29,0,*77
1498683679.15,63149,19.44,73500.0,9.41,8.71,8.55,0,*7E
1498683680.37,63150,19.44,73500.3,9.41,8.71,8.65,0,*75
1498683681.59,63151,19.44,73504.5,9.41,8.71,8.65,0,*74
1498683682.8,63152,19.44,73508.3,9.41,8.45,8.45,0,*72
1498683683.98,63153,19.44,73498.5,9.43,8.45,8.27,0,*75
1498683685.21,63154,19.44,73500.5,9.41,8.13,8.01,0,*77
1498683686.44,63155,19.44,73498.5,9.41,7.97,7.87,0,*74
1498683687.69,63156,19.44,73494.5,9.39,7.91,7.73,0,*75
1498683688.88,63157,19.44,73496.0,9.39,8.05,8.05,0,*78
1498683690.08,63158,19.44,73480.8,9.39,8.19,8.09,0,*76
1498683691.3,63159,19.44,73492.8,9.39,8.29,8.27,0,*78
1498683692.52,63160,19.44,73496.0,9.37,8.29,8.29,0,*72
1498683693.73,63161,19.44,73504.8,9.37,8.37,8.29,0,*7C
1498683694.95,63162,19.44,73494.3,9.37,8.37,8.29,0,*7F
1498683696.15,63163,19.44,73508.3,9.37,8.29,8.27,0,*7F
1498683697.39,63164,19.44,73512.5,9.39,8.37,8.29,0,*77
1498683698.61,63165,19.44,73524.8,9.37,8.59,8.47,0,*78
1498683699.86,63166,19.44,73520.5,9.39,8.59,8.51,0,*72
1498683701.11,63167,19.44,73528.0,9.39,8.59,8.47,0,*74
1498683702.35,63168,19.44,73522.0,9.39,8.59,8.41,0,*7D
1498683703.55,63169,19.44,73510.8,9.39,8.19,8.09,0,*74
1498683704.77,63170,19.44,73516.5,9.37,8.37,8.29,0,*7C
1498683706.02,63171,19.44,73504.0,9.39,8.41,8.37,0,*7D
1498683707.25,63172,19.44,73508.8,9.37,8.41,8.37,0,*70
1498683708.45,63173,19.44,73504.0,9.39,8.09,8.09,0,*7E
1498683709.62,63174,19.44,73512.0,9.37,8.19,8.15,0,*7B
1498683710.84,63175,19.44,73512.8,9.37,8.29,8.29,0,*76
1498683712.06,63176,19.44,73498.5,9.37,8.51,8.47,0,*72
1498683713.28,63177,19.44,73512.3,9.37,8.51,8.41,0,*75
1498683714.53,63178,19.44,73482.0,9.39,8.41,8.41,0,*75
1498683715.75,63179,19.44,73488.3,9.37,8.41,8.41,0,*7A
1498683716.98,63180,19.44,73488.8,9.37,8.59,8.59,0,*7C
1498683718.15,63181,19.44,73466.0,9.37,8.69,8.69,0,*7D
1498683719.36,63182,19.44,73468.0,9.39,8.71,8.69,0,*79
1498683720.6,63183,19.44,73482.5,9.39,8.75,8.75,0,*71
1498683721.83,63184,19.44,73478.0,9.39,8.71,8.61,0,*77
1498683723.02,63185,19.44,73480.3,9.39,8.69,8.61,0,*7F
1498683724.22,63186,19.44,73494.5,9.39,8.69,8.61,0,*7C
1498683725.38,63187,19.44,73496.3,9.37,8.69,8.69,0,*7B
1498683726.6,63188,19.44,73502.0,9.39,8.75,8.69,0,*77
1498683727.8,63189,19.44,73496.3,9.37,8.71,8.69,0,*7C
1498683729.02,63190,19.44,73504.0,9.39,8.71,8.69,0,*7A
1498683730.26,63191,19.44,73492.0,9.39,8.71,8.71,0,*72
1498683731.5,63192,19.44,73498.5,9.39,8.71,8.71,0,*71
1498683732.72,63193,19.44,73496.3,9.39,8.71,8.69,0,*79
1498683733.94,63194,19.44,73498.5,9.39,8.71,8.69,0,*7E
1498683735.17,63195,19.44,73508.3,9.41,8.79,8.75,0,*75
1498683736.42,63196,19.44,73502.8,9.41,8.75,8.75,0,*7A
1498683737.65,63197,19.44,73500.3,9.41,8.79,8.75,0,*77
1498683738.84,63198,19.44,73504.8,9.43,8.87,8.87,0,*76
1498683740.07,63199,19.44,73506.8,9.41,8.87,8.89,0,*7B
1498683741.28,63200,19.44,73516.5,9.43,8.89,8.79,0,*7B
1498683742.51,63201,19.44,73522.0,9.41,8.75,8.79,0,*7B
1498683743.73,63202,19.44,73516.3,9.43,8.75,8.71,0,*72
1498683744.98,63203,19.44,73528.0,9.41,8.75,8.75,0,*75
1498683746.17,63204,19.44,73512.3,9.43,8.83,8.83,0,*70
1498683747.35,63205,19.44,73522.0,9.43,8.83,8.79,0,*74
1498683748.53,63206,19.44,73532.8,9.43,8.83,8.79,0,*77
1498683749.71,63207,19.44,73534.8,9.43,8.83,8.79,0,*76
1498683750.92,63208,19.44,73452.8,9.43,8.83,8.89,0,*76
1498683752.1,63209,19.44,73480.8,9.43,8.83,8.83,0,*7D
1498683753.28,63210,19.44,73508.8,9.43,8.79,8.79,0,*75
1498683754.52,63211,19.44,73514.5,9.43,8.93,8.93,0,*74
1498683755.75,63212,19.44,73512.0,9.43,8.93,8.93,0,*77
1498683756.98,63213,19.44,73518.8,9.43,8.93,9.01,0,*7C
1498683758.22,63214,19.44,73530.8,9.43,8.93,9.01,0,*7B
1498683759.43,63215,19.44,73530.3,9.43,9.01,9.03,0,*72
1498683760.66,63216,19.44,73508.3,9.43,8.93,8.89,0,*78
1498683761.89,63217,19.44,73512.3,9.47,9.01,8.93,0,*7C
1498683763.14,63218,19.44,73514.0,9.45,9.01,8.89,0,*7A
1498683764.4,63219,19.44,73508.8,9.45,9.01,8.93,0,*70
1498683765.66,63220,19.44,73506.8,9.45,9.01,8.89,0,*71
1498683766.86,63221,19.44,73508.5,9.47,8.93,8.83,0,*72
1498683768.06,63222,19.44,73506.0,9.47,8.97,8.87,0,*71
1498683769.32,63223,19.44,73492.5,9.45,8.93,8.89,0,*78
1498683770.54,63224,19.44,73500.8,9.47,8.97,8.93,0,*72
1498683771.74,63225,19.44,73486.0,9.47,8.93,8.87,0,*72
1498683772.94,63226,19.44,73500.3,9.47,8.97,8.83,0,*71
1498683774.14,63227,19.44,73496.8,9.47,8.93,8.69,0,*70
1498683775.37,63228,19.44,73494.3,9.53,8.89,8.45,0,*7F
1498683776.57,63229,19.44,73494.8,9.49,8.69,8.15,0,*7E
1498683777.77,63230,19.44,73492.5,9.49,8.61,8.15,0,*7E
1498683779.0,63231,19.44,73496.5,9.49,8.41,8.01,0,*78
1498683780.23,63232,19.44,73496.3,9.49,8.27,7.91,0,*7D
1498683781.43,63233,19.44,73480.8,9.47,8.51,8.27,0,*71
1498683782.66,63234,19.44,73506.0,9.45,8.59,8.45,0,*78
1498683783.86,63235,19.44,73504.8,9.47,8.61,8.51,0,*75
1498683785.06,63236,19.44,73502.5,9.47,8.47,8.27,0,*73
1498683786.29,63237,19.44,73494.8,9.47,8.41,7.95,0,*72
1498683787.5,63238,19.44,73492.3,9.47,8.27,7.77,0,*71
1498683788.71,63239,19.44,73494.0,9.45,8.23,7.59,0,*7A
1498683789.92,63240,19.44,73492.3,9.45,8.15,7.55,0,*7D
1498683791.13,63241,19.44,73500.0,9.45,8.15,7.55,0,*7C
1498683792.39,63242,19.44,73502.8,9.45,8.33,7.77,0,*7B
1498683793.62,63243,19.44,73502.0,9.45,8.55,8.23,0,*74
1498683794.85,63244,19.44,73510.0,9.45,8.47,8.19,0,*79
1498683796.09,63245,19.44,73488.5,9.45,8.15,7.69,0,*77
1498683797.29,63246,19.44,73494.8,9.45,8.27,7.97,0,*74
1498683798.53,63247,19.44,73496.5,9.45,8.23,8.13,0,*72
1498683799.73,63248,19.44,73506.0,9.43,8.33,8.23,0,*79
1498683800.94,63249,19.44,73516.8,9.43,8.65,8.59,0,*76
1498683802.17,63250,19.44,73490.5,9.43,8.55,8.47,0,*72
1498683803.41,63251,19.44,73496.3,9.43,8.59,8.55,0,*7C
1498683804.61,63252,19.44,73516.3,9.43,8.65,8.55,0,*70
1498683805.82,63253,19.44,73516.3,9.43,8.65,8.55,0,*71
1498683807.0,63254,19.44,73496.5,9.43,8.15,8.05,0,*74
1498683808.24,63255,19.44,73510.0,9.41,8.13,8.01,0,*75
1498683809.44,63256,19.44,73496.0,9.41,8.09,8.01,0,*7D
1498683810.67,63257,19.44,73496.8,9.41,8.41,8.23,0,*70
1498683811.9,63258,19.44,73492.5,9.41,8.45,8.33,0,*7A
1498683813.12,63259,19.44,73518.8,9.41,8.61,8.41,0,*78
1498683814.33,63260,19.44,73510.0,9.41,8.61,8.45,0,*76
1498683815.53,63261,19.44,73524.0,9.43,8.65,8.55,0,*70
1498683816.79,63262,19.44,73516.0,9.41,8.71,8.55,0,*74
1498683818.02,63263,19.44,73508.5,9.41,8.61,8.51,0,*70
1498683819.24,63264,19.44,73516.3,9.41,8.71,8.65,0,*71
1498683820.44,63265,19.44,73526.0,9.41,8.65,8.65,0,*75
1498683821.63,63266,19.44,73526.8,9.41,8.65,8.65,0,*76
1498683822.83,63267,19.44,73526.0,9.41,8.61,8.65,0,*73
1498683824.06,63268,19.44,73516.0,9.41,8.61,8.51,0,*7B
1498683825.29,63269,19.44,73508.5,9.41,8.61,8.55,0,*7E
1498683826.54,63270,19.44,73518.3,9.41,8.71,8.71,0,*71
1498683827.76,63271,19.44,73514.3,9.41,8.71,8.65,0,*75
1498683829.01,63272,19.44,73518.0,9.41,8.75,8.71,0,*77
1498683830.22,63273,19.44,73512.5,9.43,8.79,8.47,0,*7D
1498683831.41,63274,19.44,73518.8,9.43,8.79,8.05,0,*7C
1498683832.62,63275,19.44,73518.8,9.43,8.79,8.13,0,*7A
1498683833.88,63276,19.44,73500.3,9.41,8.71,7.95,0,*72
1498683835.09,63277,19.44,73520.8,9.43,8.55,8.15,0,*70
1498683836.29,63278,19.44,73522.3,9.43,8.37,7.97,0,*7E
1498683837.54,63279,19.44,73512.3,9.41,8.29,7.87,0,*73
1498683838.77,63280,19.44,73522.8,9.41,8.13,7.45,0,*72
1498683839.97,63281,19.44,73532.3,9.41,8.01,7.55,0,*71
1498683841.16,63282,19.44,73522.0,9.43,8.23,7.37,0,*74
1498683842.38,63283,19.44,73520.0,9.41,8.13,7.33,0,*70
1498683843.64,63284,19.44,73506.0,9.41,8.13,6.91,0,*7E
1498683844.9,63285,19.44,73516.5,9.41,8.41,7.15,0,*75
1498683846.16,63286,19.44,73516.5,9.41,8.13,7.95,0,*79
1498683847.38,63287,19.44,73506.5,9.39,8.51,8.27,0,*77
1498683848.6,63288,19.44,73498.0,9.41,8.61,8.29,0,*7A
1498683849.83,63289,19.44,73512.0,9.41,8.65,8.41,0,*71
1498683851.08,63290,19.44,73526.0,9.41,8.71,8.33,0,*79
1498683852.32,63291,19.44,73526.5,9.41,8.55,7.51,0,*75
1498683853.55,63292,19.44,73492.3,9.41,8.41,7.41,0,*72
1498683854.78,63293,19.44,73446.0,9.41,8.33,8.09,0,*75
1498683856.03,63294,19.44,73488.0,9.41,8.51,8.33,0,*7F
1498683857.26,63295,19.44,73516.3,9.41,8.33,8.19,0,*72
1498683858.51,63296,19.44,73500.3,9.39,8.59,8.51,0,*7E
1498683859.7,63297,19.44,73496.0,9.37,8.71,8.69,0,*70
1498683860.92,63298,19.44,73502.5,9.39,8.75,8.87,0,*75
1498683862.12,63299,19.44,73504.0,9.39,8.87,8.87,0,*79
1498683863.38,63300,19.44,73522.3,9.41,8.89,8.97,0,*78
1498683864.63,63301,19.44,73518.8,9.41,8.89,8.97,0,*79
1498683865.88,63302,19.44,73512.5,9.41,9.01,8.97,0,*7B
1498683867.14,63303,19.44,73534.5,9.41,8.89,8.89,0,*74
1498683868.37,63304,19.44,73520.0,9.43,8.75,7.77,0,*7C
1498683869.6,63305,19.44,73506.3,9.43,8.37,8.13,0,*76
1498683870.83,63306,19.44,73508.3,9.41,8.29,8.01,0,*7B
1498683872.04,63307,19.44,73504.5,9.43,8.37,8.01,0,*77
1498683873.24,63308,19.44,73472.3,9.43,8.45,8.13,0,*7E
1498683874.49,63309,19.44,73472.0,9.41,8.71,8.71,0,*7E
1498683875.7,63310,19.44,73512.8,9.41,8.79,8.79,0,*76
1498683876.93,63311,19.44,73504.8,9.41,8.75,8.61,0,*72
1498683878.14,63312,19.44,73498.8,9.43,8.83,8.59,0,*71
1498683879.34,63313,19.44,73492.3,9.43,8.83,8.75,0,*7E
1498683880.55,63314,19.44,73488.5,9.43,8.93,8.83,0,*71
1498683881.75,63315,19.44,73500.5,9.43,8.89,8.79,0,*7E
1498683882.98,63316,19.44,73514.0,9.43,8.93,8.75,0,*7A
1498683884.2,63317,19.44,73512.3,9.43,8.79,8.55,0,*7D
1498683885.42,63318,19.44,73518.0,9.43,8.75,8.47,0,*7D
1498683886.66,63319,19.44,73510.3,9.43,8.75,8.55,0,*7F
1498683887.86,63320,19.44,73510.0,9.43,8.65,8.37,0,*70
1498683889.07,63321,19.44,73528.0,9.43,8.59,8.45,0,*7B
1498683890.27,63322,19.44,73520.8,9.43,8.83,8.75,0,*7C
1498683891.45,63323,19.44,73508.8,9.43,8.83,8.79,0,*71
1498683892.68,63324,19.44,73496.5,9.45,8.93,8.83,0,*74
1498683893.91,63325,19.44,73492.5,9.45,8.79,8.75,0,*78
1498683895.12,63326,19.44,73484.5,9.47,8.79,8.71,0,*7D
1498683896.34,63327,19.44,73496.8,9.45,8.65,8.59,0,*79
1498683897.6,63328,19.44,73504.8,9.45,8.55,8.55,0,*79
1498683898.81,63329,19.44,73504.5,9.43,8.65,8.55,0,*7D
1498683900.07,63330,19.44,73500.5,9.45,8.55,8.37,0,*74
1498683901.32,63331,19.44,73496.3,9.45,8.59,8.47,0,*7E
1498683902.53,63332,19.44,73480.5,9.43,8.65,8.37,0,*73
1498683903.73,63333,19.44,73486.3,9.43,8.69,8.59,0,*76
1498683904.96,63334,19.44,73486.5,9.43,8.55,8.47,0,*71
1498683906.22,63335,19.44,73496.0,9.45,8.59,8.47,0,*7A
1498683907.45,63336,19.44,73496.5,9.45,8.47,8.27,0,*70
1498683908.66,63337,19.44,73496.5,9.45,8.27,8.05,0,*77
1498683909.87,63338,19.44,73502.5,9.45,8.15,8.05,0,*79
1498683911.09,63339,19.44,73500.3,9.43,8.27,8.13,0,*78
1498683912.27,63340,19.44,73498.8,9.43,8.27,8.01,0,*75
1498683913.49,63341,19.44,73502.0,9.41,8.19,8.01,0,*7B
1498683914.69,63342,19.44,73494.0,9.43,8.33,8.23,0,*72
1498683915.92,63343,19.44,73490.5,9.41,8.33,8.19,0,*78
1498683917.14,63344,19.44,73500.5,9.41,8.29,8.23,0,*7D
1498683918.35,63345,19.44,73502.3,9.41,8.61,8.45,0,*70
1498683919.55,63346,19.44,73502.8,9.43,8.37,8.15,0,*77
1498683920.74,63347,19.44,73504.5,9.43,8.27,8.15,0,*77
1498683921.99,63348,19.44,73502.8,9.41,8.29,8.13,0,*72
1498683923.21,63349,19.44,73498.5,9.41,8.29,7.97,0,*70
1498683924.44,63350,19.44,73506.0,9.41,8.33,8.09,0,*7B
1498683925.64,63351,19.44,73508.3,9.41,8.45,8.09,0,*7B
1498683926.87,63352,19.44,73514.3,9.39,8.47,8.05,0,*79
1498683928.11,63353,19.44,73508.5,9.39,8.37,7.83,0,*7E
1498683929.34,63354,19.44,73508.8,9.39,8.19,7.73,0,*7A
1498683930.6,63355,19.44,73508.0,9.41,8.29,7.77,0,*73
1498683931.82,63356,19.44,73508.3,9.39,8.09,7.69,0,*72
1498683933.04,63357,19.44,73498.0,9.39,8.05,7.61,0,*77
1498683934.22,63358,19.44,73480.8,9.37,8.15,7.79,0,*7E
1498683935.44,63359,19.44,73484.0,9.39,8.37,8.19,0,*78
1498683936.65,63360,19.44,73510.3,9.37,8.59,8.27,0,*79
1498683937.84,63361,19.44,73498.3,9.37,8.61,8.37,0,*72
1498683939.06,63362,19.44,73514.8,9.39,8.69,8.47,0,*70
1498683940.27,63363,19.44,73512.5,9.39,8.69,8.47,0,*71
1498683941.47,63364,19.44,73508.0,9.37,8.61,8.37,0,*77
1498683942.71,63365,19.44,73490.5,9.39,8.47,8.29,0,*73
1498683943.96,63366,19.44,73472.8,9.39,8.41,8.37,0,*79
1498683945.18,63367,19.44,73482.3,9.37,8.59,8.47,0,*78
1498683946.38,63368,19.44,73494.0,9.39,8.69,8.69,0,*76
1498683947.59,63369,19.44,73506.3,9.39,8.71,8.69,0,*7E
1498683948.84,63370,19.44,73508.8,9.39,8.71,8.71,0,*7F
1498683950.07,63371,19.44,73508.5,9.41,8.51,8.45,0,*74
1498683951.26,63372,19.44,73510.0,9.37,8.29,8.09,0,*71
1498683952.46,63373,19.44,73506.8,9.39,8.27,8.19,0,*71
1498683953.7,63374,19.44,73500.8,9.39,8.37,8.29,0,*74
1498683954.95,63375,19.44,73500.8,9.39,8.59,8.51,0,*72
1498683956.17,63376,19.44,73510.0,9.39,8.61,8.59,0,*72
1498683957.41,63377,19.44,73506.0,9.39,8.51,8.47,0,*7F
1498683958.63,63378,19.44,73480.8,9.37,8.51,8.47,0,*7E
1498683959.85,63379,19.44,73494.0,9.37,8.51,8.47,0,*7F
1498683961.1,63380,19.44,73502.0,9.39,8.59,8.41,0,*79
1498683962.34,63381,19.44,73500.8,9.39,8.51,8.41,0,*70
1498683963.59,63382,19.44,73496.8,9.39,8.51,8.41,0,*73
1498683964.78,63383,19.44,73478.8,9.37,8.61,8.47,0,*79
1498683965.97,63384,19.44,73496.0,9.39,8.69,8.61,0,*7C
1498683967.17,63385,19.44,73500.8,9.39,8.69,8.61,0,*7D
1498683968.38,63386,19.44,73494.3,9.39,8.69,8.47,0,*7A
1498683969.6,63387,19.44,73484.8,9.39,8.69,8.59,0,*74
1498683970.82,63388,19.44,73492.3,9.39,8.61,8.51,0,*7B
1498683972.06,63389,19.44,73502.3,9.39,8.59,8.47,0,*76
1498683973.26,63390,19.44,73500.8,9.39,8.69,8.61,0,*79
1498683974.45,63391,19.44,73504.5,9.39,8.69,8.61,0,*78
1498683975.67,63392,19.44,73500.3,9.39,8.71,8.69,0,*7A
1498683976.89,63393,19.44,73502.8,9.39,8.71,8.69,0,*7B
1498683978.11,63394,19.44,73508.0,9.39,8.71,8.69,0,*7C
1498683979.33,63395,19.44,73510.0,9.39,8.71,8.69,0,*7D
1498683980.58,63396,19.44,73512.3,9.41,8.75,8.71,0,*7C
1498683981.8,63397,19.44,73508.3,9.41,8.71,8.65,0,*7C
1498683983.03,63398,19.44,73514.0,9.41,8.71,8.65,0,*73
1498683984.25,63399,19.44,73494.8,9.41,8.65,8.55,0,*74
1498683985.48,63400,19.44,73496.3,9.41,8.61,8.51,0,*73
1498683986.71,63401,19.44,73508.3,9.41,8.71,8.65,0,*74
1498683987.96,63402,19.44,73512.5,9.41,8.75,8.71,0,*76
1498683989.19,63403,19.44,73510.8,9.41,8.79,8.71,0,*7B
1498683990.44,63404,19.44,73496.0,9.41,8.75,8.71,0,*70
1498683991.69,63405,19.44,73504.5,9.41,8.75,8.71,0,*71
1498683992.92,63406,19.44,73512.0,9.41,8.79,8.71,0,*7E
1498683994.17,63407,19.44,73512.0,9.41,8.75,8.71,0,*73
1498683995.4,63408,19.44,73502.0,9.41,8.75,8.65,0,*79
1498683996.65,63409,19.44,73504.8,9.41,8.75,8.71,0,*7D
1498683997.85,63410,19.44,73510.8,9.41,8.79,8.79,0,*71
1498683999.04,63411,19.44,73522.0,9.43,8.83,8.79,0,*77
1498684000.28,63412,19.44,73508.5,9.41,8.75,8.75,0,*73
1498684001.49,63413,19.44,73500.3,9.43,8.75,8.69,0,*7D
1498684002.74,63414,19.44,73502.0,9.41,8.71,8.71,0,*75
1498684003.99,63415,19.44,73500.3,9.41,8.75,8.71,0,*70
1498684005.19,63416,19.44,73496.8,9.43,8.75,8.69,0,*78
1498684006.36,63417,19.44,73506.3,9.43,8.69,8.65,0,*78
1498684007.57,63418,19.44,73514.8,9.43,8.65,8.59,0,*74
1498684008.8,63419,19.44,73504.0,9.41,8.61,8.55,0,*7F
1498684010.03,63420,19.44,73504.0,9.43,8.59,8.55,0,*7C
1498684011.26,63421,19.44,73502.8,9.41,8.71,8.65,0,*76
1498684012.46,63422,19.44,73494.3,9.41,8.65,8.61,0,*74
1498684013.72,63423,19.44,73478.0,9.41,8.55,8.51,0,*75
1498684014.97,63424,19.44,73490.8,9.41,8.41,8.29,0,*78
1498684016.2,63425,19.44,73496.3,9.41,8.29,8.23,0,*7D
1498684017.43,63426,19.44,73488.0,9.41,8.55,8.45,0,*75
1498684018.66,63427,19.44,73488.8,9.41,8.45,8.41,0,*71
1498684019.86,63428,19.44,73504.5,9.41,8.65,8.61,0,*7E
1498684021.09,63429,19.44,73504.0,9.41,8.65,8.55,0,*78
1498684022.32,63430,19.44,73508.5,9.41,8.51,8.45,0,*76
1498684023.57,63431,19.44,73504.5,9.41,8.51,8.51,0,*72
1498684024.83,63432,19.44,73504.0,9.41,8.55,8.51,0,*75
1498684026.09,63433,19.44,73496.3,9.41,8.55,8.51,0,*74
1498684027.35,63434,19.44,73490.8,9.41,8.55,8.51,0,*73
1498684028.61,63435,19.44,73490.8,9.41,8.41,8.33,0,*73
1498684029.86,63436,19.44,73484.8,9.41,8.29,8.29,0,*75
1498684031.07,63437,19.44,73480.8,9.41,8.23,8.19,0,*7D
1498684032.32,63438,19.44,73490.5,9.41,8.33,8.33,0,*7B
1498684033.57,63439,19.44,73492.5,9.41,8.51,8.51,0,*7A
1498684034.79,63440,19.44,73498.5,9.39,8.61,8.59,0,*70
1498684036.02,63441,19.44,73494.5,9.37,8.59,8.51,0,*7C
1498684037.23,63442,19.44,73498.8,9.39,8.69,8.59,0,*7A
1498684038.43,63443,19.44,73496.8,9.39,8.69,8.69,0,*78
1498684039.68,63444,19.44,73496.3,9.39,8.59,8.51,0,*77
1498684040.87,63445,19.44,73500.8,9.39,8.61,8.61,0,*7E
1498684042.09,63446,19.44,73508.3,9.39,8.61,8.59,0,*76
1498684043.28,63447,19.44,73514.0,9.39,8.69,8.69,0,*7C
1498684044.47,63448,19.44,73510.3,9.39,8.69,8.69,0,*73
1498684045.66,63449,19.44,73508.3,9.39,8.69,8.69,0,*72
1498684046.91,63450,19.44,73512.3,9.41,8.75,8.71,0,*71
1498684048.16,63451,19.44,73514.8,9.41,8.75,8.71,0,*70
1498684049.42,63452,19.44,73518.8,9.41,8.75,8.71,0,*73
1498684050.64,63453,19.44,73510.0,9.41,8.65,8.55,0,*75
1498684051.9,63454,19.44,73510.0,9.41,8.55,8.51,0,*75
1498684053.13,63455,19.44,73500.8,9.41,8.61,8.51,0,*73
1498684054.35,63456,19.44,73502.8,9.39,8.61,8.51,0,*7F
1498684055.6,63457,19.44,73510.3,9.41,8.71,8.71,0,*72
1498684056.85,63458,19.44,73502.5,9.41,8.71,8.71,0,*7D
1498684058.09,63459,19.44,73502.5,9.41,8.55,8.45,0,*7D
1498684059.35,63460,19.44,73498.3,9.41,8.55,8.51,0,*72
1498684060.58,63461,19.44,73494.0,9.41,8.71,8.61,0,*76
1498684061.8,63462,19.44,73498.0,9.41,8.65,8.51,0,*73
1498684063.03,63463,19.44,73504.5,9.41,8.65,8.55,0,*76
1498684064.28,63464,19.44,73514.0,9.39,8.51,8.51,0,*7D
1498684065.48,63465,19.44,73506.3,9.43,8.45,8.33,0,*70
1498684066.74,63466,19.44,73510.0,9.41,8.13,8.13,0,*70
1498684067.94,63467,19.44,73512.5,9.41,8.09,8.09,0,*71
1498684069.15,63468,19.44,73522.8,9.41,8.23,8.09,0,*76
1498684070.36,63469,19.44,73514.5,9.41,8.19,8.09,0,*7E
1498684071.56,63470,19.44,73516.0,9.43,8.37,8.15,0,*75
1498684072.76,63471,19.44,73514.3,9.39,8.15,8.05,0,*78
1498684073.94,63472,19.44,73484.5,9.37,8.15,8.05,0,*75
1498684075.12,63473,19.44,73478.0,9.37,8.27,8.19,0,*78
1498684076.37,63474,19.44,73496.8,9.39,8.47,8.41,0,*7A
1498684077.59,63475,19.44,73494.0,9.37,8.37,8.37,0,*73
1498684078.82,63476,19.44,73492.3,9.37,8.47,8.37,0,*77
1498684080.07,63477,19.44,73488.5,9.39,8.47,8.41,0,*79
1498684081.29,63478,19.44,73502.5,9.37,8.59,8.51,0,*76
1498684082.51,63479,19.44,73510.0,9.39,8.61,8.51,0,*72
1498684083.73,63480,19.44,73510.8,9.37,8.51,8.41,0,*78
1498684084.95,63481,19.44,73496.8,9.37,8.59,8.59,0,*78
1498684086.15,63482,19.44,73494.8,9.39,8.69,8.69,0,*75
1498684087.39,63483,19.44,73506.8,9.39,8.71,8.75,0,*70
1498684088.58,63484,19.44,73508.0,9.37,8.71,8.69,0,*74
1498684089.8,63485,19.44,73512.5,9.39,8.71,8.69,0,*7B
1498684091.02,63486,19.44,73514.5,9.39,8.71,8.69,0,*78
1498684092.24,63487,19.44,73510.8,9.39,8.71,8.69,0,*79
1498684093.43,63488,19.44,73506.5,9.39,8.61,8.61,0,*7F
1498684094.68,63489,19.44,73524.3,9.39,8.51,8.51,0,*7E
1498684095.92,63490,19.44,73520.3,9.39,8.59,8.51,0,*7E
1498684097.15,63491,19.44,73514.8,9.37,8.59,8.47,0,*76
1498684098.34,63492,19.44,73498.8,9.39,8.69,8.69,0,*74
1498684099.59,63493,19.44,73454.0,9.41,8.75,8.71,0,*7E
1498684100.84,63494,19.44,73478.0,9.41,8.75,8.71,0,*79
1498684102.05,63495,19.44,73494.0,9.41,8.79,8.79,0,*7C
1498684103.3,63496,19.44,73498.8,9.41,8.75,8.75,0,*7F
1498684104.55,63497,19.44,73504.0,9.41,8.71,8.71,0,*7E
1498684105.77,63498,19.44,73506.3,9.41,8.75,8.65,0,*70
1498684106.97,63499,19.44,73506.5,9.41,8.65,8.65,0,*70
1498684108.2,63500,19.44,73510.5,9.41,8.61,8.55,0,*76
1498684109.43,63501,19.44,73512.5,9.41,8.71,8.61,0,*71
1498684110.63,63502,19.44,73516.0,9.41,8.65,8.61,0,*77
1498684111.86,63503,19.44,73514.5,9.41,8.71,8.61,0,*73
1498684113.11,63504,19.44,73524.0,9.41,8.75,8.71,0,*71
1498684114.36,63505,19.44,73522.0,9.41,8.75,8.71,0,*70
1498684115.61,63506,19.44,73522.8,9.41,8.75,8.71,0,*73
1498684116.84,63507,19.44,73510.5,9.41,8.71,8.65,0,*73
1498684118.06,63508,19.44,73512.5,9.41,8.71,8.65,0,*7C
1498684119.29,63509,19.44,73522.0,9.41,8.61,8.55,0,*7F
1498684120.51,63510,19.44,73516.5,9.41,8.71,8.65,0,*75
1498684121.71,63511,19.44,73510.3,9.41,8.65,8.65,0,*71
1498684122.94,63512,19.44,73514.8,9.41,8.51,8.61,0,*71
1498684124.16,63513,19.44,73516.0,9.41,8.65,8.71,0,*76
1498684125.34,63514,19.44,73510.3,9.43,8.69,8.69,0,*76
1498684126.55,63515,19.44,73508.3,9.43,8.55,8.65,0,*74
1498684127.78,63516,19.44,73506.3,9.43,8.59,8.59,0,*74
1498684129.01,63517,19.44,73506.5,9.43,8.47,8.47,0,*75
1498684130.24,63518,19.44,73512.8,9.41,8.45,8.51,0,*7D
1498684131.44,63519,19.44,73512.0,9.43,8.45,8.47,0,*79
1498684132.67,63520,19.44,73524.8,9.41,8.51,8.45,0,*76
1498684133.91,63521,19.44,73518.8,9.43,8.55,8.55,0,*70